Jendouba, Tunisia

12:10 PM CET on October 17, 2019 (GMT +0100)
Jendouba

Weather History for DTTN - August, 2019

Change the Weather History Date:

Saturday, August 3, 2019

  Actual Average (WUND) Record (WUND)
Temperature  
Mean Temperature 90 °F -  
Max Temperature 101 °F 96 °F - (-1)
Min Temperature 80 °F 66 °F - (-1)
Cooling Degree Days 26    
Growing Degree Days 40 (Base 50)    
Moisture  
Dew Point 62 °F    
Average Humidity 39    
Maximum Humidity 74    
Minimum Humidity 20    
Precipitation  
Precipitation 0.00 in 0.02 in - ()
Sea Level Pressure  
Sea Level Pressure 29.90 in    
Wind  
Wind Speed 6 mph ()    
Max Wind Speed 13 mph    
Max Gust Speed -    
Visibility 6.1 miles    
Events      
Averages and records for this station are not official NWS values.
T = Trace of Precipitation, MM = Missing Value Source: Averaged Metar Reports

Daily Weather History Graph

Daily Weather History Graph

Search for Another Location

Airport or City:

Astronomy

Aug. 03, 2019 Rise Set
Actual Time 5:32 AM CET 7:29 PM CET
Civil Twilight 5:04 AM CET 7:57 PM CET
Nautical Twilight 4:29 AM CET 8:31 PM CET
Astronomical Twilight 3:52 AM CET 9:08 PM CET
Moon 8:02 AM CET (8/3) 9:29 PM CET (8/3)
Length of Visible Light 14h 53m
Length of Day
13h 56m
Waxing Crescent, 8% of the Moon is Illuminated
Aug 3
Waxing Crescent
Aug 7
First Quarter
Aug 15
Full
Aug 23
Last Quarter
Aug 30
New

Hourly Weather History & Observations

Time (CET) Temp. Heat Index Dew Point Humidity Pressure Visibility Wind Dir Wind Speed Gust Speed Precip Events Conditions
12:00 AM 86.0 °F 87.3 °F 64.4 °F 48% 29.92 in 5.0 mi NW 8.1 mph - N/A   Scattered Clouds
1:00 AM 86 °F - 63 °F 36% 29.88 in 5 mi WNW 5.8 mph - -   Partly Cloudy
1:00 AM 86.0 °F 86.6 °F 62.6 °F 45% 29.89 in 5.0 mi WNW 5.8 mph - N/A   Scattered Clouds
2:00 AM 80.6 °F 81.8 °F 62.6 °F 54% 29.89 in 5.0 mi Variable 2.3 mph - N/A   Scattered Clouds
3:00 AM 80.6 °F 81.5 °F 60.8 °F 51% 29.89 in 5.0 mi SSE 1.2 mph - N/A   Scattered Clouds
4:00 AM 83 °F - 66 °F 48% 29.88 in 5 mi NNW 8.1 mph - -   Partly Cloudy
4:00 AM 82.4 °F 84.6 °F 66.2 °F 58% 29.89 in 5.0 mi NNW 8.1 mph - N/A   Scattered Clouds
5:00 AM 82.4 °F 85.4 °F 68.0 °F 62% 29.89 in 5.0 mi NW 8.1 mph - N/A   Scattered Clouds
6:00 AM 80.6 °F 84.6 °F 71.6 °F 74% 29.92 in 6.2 mi NNW 10.4 mph - N/A   Partly Cloudy
8:00 AM 87.8 °F 92.6 °F 69.8 °F 55% 29.92 in - North - - N/A   Clear
9:00 AM 87.8 °F 91.4 °F 68.0 °F 52% 29.92 in - NNW 5.8 mph - N/A   Clear
10:00 AM 91 °F - 68 °F 37% 29.91 in 9 mi North 4.6 mph - -   Clear
10:00 AM 91.4 °F 95.4 °F 68.0 °F 46% 29.92 in - North 4.6 mph - N/A   Clear
11:00 AM 95.0 °F 98.5 °F 66.2 °F 39% 29.92 in - Variable 4.6 mph - N/A   Clear
12:00 PM 96.8 °F 101.8 °F 68.0 °F 39% 29.92 in - NNW 5.8 mph - N/A   Clear
1:00 PM 98 °F - 66 °F 26% 29.88 in 9 mi NNW 6.9 mph - -   Clear
1:00 PM 98.6 °F 102.8 °F 66.2 °F 35% 29.92 in - NNW 6.9 mph - N/A   Clear
2:00 PM 100.4 °F 102.4 °F 62.6 °F 29% 29.89 in - NNW 5.8 mph - N/A   Clear
3:00 PM 100.4 °F 104.9 °F 66.2 °F 33% 29.89 in - NW 9.2 mph - N/A   Clear
4:00 PM 99 °F - 63 °F 22% 29.84 in 9 mi NW 12.7 mph - -   Scattered Clouds
5:00 PM 96.8 °F 96.2 °F 59.0 °F 28% 29.86 in 6.2 mi NNW 12.7 mph - N/A   Partly Cloudy
6:00 PM 95.0 °F 92.7 °F 53.6 °F 25% 29.89 in 6.2 mi NNW 9.2 mph - N/A   Partly Cloudy
7:00 PM 92 °F - 56 °F 20% 29.89 in 9 mi NNW 6.9 mph - -   Scattered Clouds
7:00 PM 93.2 °F 91.3 °F 55.4 °F 28% 29.92 in 6.2 mi NNW 6.9 mph - N/A   Partly Cloudy
8:00 PM 89.6 °F 87.3 °F 53.6 °F 29% 29.92 in 6.2 mi North 5.8 mph - N/A   Partly Cloudy
9:00 PM 86.0 °F - 50.0 °F 29% 29.92 in 6.2 mi Variable 2.3 mph - N/A   Partly Cloudy
10:00 PM 84 °F - 50 °F 20% 29.92 in 5 mi ENE 4.6 mph - -  
10:00 PM 84.2 °F - 50.0 °F 30% 29.92 in 5.0 mi ENE 4.6 mph - N/A   Unknown
11:00 PM 82.4 °F - 50.0 °F 32% 29.95 in 5.0 mi NNE 4.6 mph - N/A   Unknown